Regional Weather Roundup
Issued by NWS Goodland, KS

Home | Current Version | Previous Version | Text Only | Print | Product List | Glossary Off
Versions: 1 2 3 4 5 6 7 8 9 10 11 12 13 14 15 16 17 18 19 20 21 22 23 24 25 26 27 28 29 30 31 32 33 34 35 36 37 38 39 40 41 42 43 44 45 46 47 48 49 50

000
ASUS43 KGLD 292108
RWRGLD

GOODLAND FORECAST AREA HOURLY WEATHER ROUNDUP
NATIONAL WEATHER SERVICE GOODLAND KS
300 PM MDT THU SEP 29 2016

...OFFICIAL OBSERVATIONS...

CITY           SKY/WX    TMP DP  RH WIND       PRES   REMARKS
GOODLAND KS    SUNNY     74  42  31 SE16G24   30.32F
HILL CITY KS   SUNNY     71  44  37 E7        30.35F
IMPERIAL NEB   SUNNY     75  39  27 SE17G28   30.30F
MCCOOK NEB     SUNNY     73  41  31 SE12      30.33F
AKRON CO       SUNNY     79  39  23 SE22G31   30.28F
BURLINGTON CO  SUNNY     76  39  26 S21G28    30.32F
LIMON CO       SUNNY     80  33  18 S20G28    30.31F
$$

...UNOFFICIAL OBSERVATIONS...

CITY           SKY/WX    TMP DP  RH WIND       PRES   REMARKS
COLBY KS       SUNNY     75  45  33 SE13      30.34F
LENORA KS        N/A     68  32  26 MISG        N/A
NORTON KS      SUNNY     70  36  28 SE9       30.33F
SHARON SPRINGS   N/A     77  46  33 S9G22       N/A
KIT CARSON CO    N/A     75  44  33 MISG        N/A
$$




USA.gov is the U.S. government's official web portal to all federal, state and local government web resources and services.